Location: Asheville, NC
(35.6000°N, 82.5500°W)
Time: 19:19:20
(UTC-05:00)

Vanguard 1 Rocket - Visible Passes

Search period start: 20 January 2018 00:00
Search period end: 30 January 2018 00:00
Orbit: 656 x 4222 km, 34.3° (Epoch: 19 January)

Date Brightness Start Highest point End Pass type
(mag) Time Alt. Az. Time Alt. Az. Time Alt. Az.
20 Jan 11.1 03:48:00 10° S 04:00:38 20° SSE 04:09:30 10° ESE visible
20 Jan 9.8 06:14:07 10° SW 06:29:10 46° SSE 06:37:11 10° E visible
21 Jan 11.5 02:39:35 10° SSE 02:47:17 13° SE 02:53:45 10° ESE visible
21 Jan 10.4 05:00:27 10° SSW 05:16:47 36° SSE 05:26:10 10° E visible
22 Jan 10.9 03:47:44 10° SSW 04:03:53 27° SSE 04:14:18 10° E visible
22 Jan 9.6 06:16:07 10° SW 06:32:25 56° SSE 06:40:46 10° E visible
23 Jan 11.3 02:36:50 10° S 02:50:31 19° SE 03:00:44 10° ESE visible
23 Jan 10.1 05:01:48 10° SW 05:20:00 45° SSE 05:29:57 10° E visible
24 Jan 11.7 01:33:30 11° SSE 01:36:48 11° SE 01:42:02 10° SE visible
24 Jan 10.6 03:51:09 14° SSW 04:07:01 35° SSE 04:18:28 10° E visible
24 Jan 9.4 06:18:22 10° WSW 06:35:38 65° SSE 06:44:14 10° E visible
25 Jan 11.1 02:46:44 22° S 02:53:36 26° SE 03:05:50 10° E visible
25 Jan 9.9 05:04:15 11° SW 05:23:08 54° SSE 05:33:32 10° E visible
26 Jan 11.4 01:41:28 17° SE 01:41:28 17° SE 01:50:48 10° ESE visible
26 Jan 10.4 03:58:54 27° SSW 04:10:05 44° SSE 04:22:17 10° E visible
26 Jan 9.3 06:20:52 10° WSW 06:38:50 73° SSE 06:47:41 10° E visible
27 Jan 10.8 02:53:05 32° SSE 02:56:34 34° SSE 03:10:09 10° E visible
27 Jan 9.7 05:10:29 19° SW 05:26:15 63° SSE 05:37:01 10° E visible
28 Jan 11.2 01:46:56 23° SE 01:46:56 23° SE 01:56:26 10° E visible
28 Jan 10.2 04:04:18 37° SSW 04:13:05 52° SSE 04:25:53 10° E visible
28 Jan 9.3 06:23:30 10° WSW 06:42:02 79° S 06:51:06 10° E visible
29 Jan 10.6 02:57:53 41° SSE 02:59:26 42° SSE 03:14:03 10° E visible
29 Jan 9.7 05:15:15 25° WSW 05:29:20 71° SSE 05:40:25 10° E visible
